Madera, CA

2:43 PM PST on December 02, 2016 (GMT -0800)
Madera Municipal

Weather History for KMAE - March, 2013

Change the Weather History Date:

Wednesday, March 6, 2013

  Actual Average Record
Temperature  
Mean Temperature 53 °F 53 °F  
Max Temperature 59 °F 65 °F 77 °F (2007)
Min Temperature 47 °F 42 °F 35 °F (2015)
Degree Days  
Heating Degree Days 12    
Month to date heating degree days 44  
Since 1 July heating degree days 2047  
Cooling Degree Days 0    
Month to date cooling degree days 0  
Year to date cooling degree days 0  
Growing Degree Days 2 (Base 50)    
Moisture  
Dew Point 42 °F    
Average Humidity 70    
Maximum Humidity 86    
Minimum Humidity 54    
Precipitation  
Precipitation 0.02 in 0.07 in 0.47 in (2002)
Month to date precipitation 0.02 0.54  
Year to date precipitation 2.16 5.12  
Since 1 July precipitation 6.86  
Snow  
Snow 0.00 in - - ()
Month to date snowfall 0.0  
Since 1 July snowfall 0.0  
Snow Depth 0.00 in    
Sea Level Pressure  
Sea Level Pressure 30.03 in    
Wind  
Wind Speed 8 mph (WNW)    
Max Wind Speed 16 mph    
Max Gust Speed 21 mph    
Visibility 10 miles    
Events Rain    
T = Trace of Precipitation, MM = Missing Value Source: NWS Daily Summary

Daily Weather History Graph

Daily Weather History Graph

Search for Another Location

Airport or City:

Trip Planner

Search our weather history database for the weather conditions in past years. The results will help you decide how hot, cold, wet, or windy it might be!

Date:

Astronomy

Mar. 06, 2013 Rise Set
Actual Time 6:23 AM PST 5:59 PM PST
Civil Twilight 5:57 AM PST 6:25 PM PST
Nautical Twilight 5:27 AM PST 6:55 PM PST
Astronomical Twilight 4:57 AM PST 7:26 PM PST
Moon 2:31 AM PST (3/6) 12:52 PM PST (3/6)
Length of Visible Light 12h 27m
Length of Day
11h 35m
Waning Crescent, 29% of the Moon is Illuminated
Mar 6
Waning Crescent
Mar 11
New
Mar 19
First Quarter
Mar 27
Full
Apr 2
Last Quarter

Hourly Weather History & Observations

Time (PST) Temp. Dew Point Humidity Pressure Visibility Wind Dir Wind Speed Gust Speed Precip Events Conditions
12:53 AM 52.0 °F 35.1 °F 53% 29.97 in 10.0 mi North - - N/A   Overcast
1:53 AM 51.1 °F 37.0 °F 59% 29.98 in 10.0 mi North - - 0.00 in Rain Light Rain
2:53 AM 51.1 °F 37.0 °F 59% 29.99 in 10.0 mi North - - 0.00 in   Overcast
3:53 AM 50.0 °F 39.0 °F 66% 30.02 in 10.0 mi North - - N/A   Overcast
4:53 AM 48.9 °F 39.9 °F 71% 30.02 in 10.0 mi North - - N/A   Scattered Clouds
5:53 AM 50.0 °F 39.9 °F 68% 30.03 in 10.0 mi North - - N/A   Overcast
6:53 AM 50.0 °F 41.0 °F 71% 30.03 in 10.0 mi SE 15.0 mph - N/A   Overcast
7:53 AM 51.1 °F 43.0 °F 74% 30.06 in 10.0 mi SE 11.5 mph - N/A   Scattered Clouds
8:53 AM 53.1 °F 45.0 °F 74% 30.08 in 10.0 mi South 12.7 mph - 0.02 in Rain Light Rain
9:53 AM 55.0 °F 43.0 °F 64% 30.10 in 10.0 mi South 9.2 mph - 0.00 in Rain Light Rain
10:53 AM 55.9 °F 45.0 °F 67% 30.10 in 10.0 mi South 9.2 mph - 0.00 in   Overcast
11:53 AM 57.9 °F 44.1 °F 60% 30.10 in 10.0 mi South 6.9 mph - N/A   Scattered Clouds
12:53 PM 57.9 °F 43.0 °F 58% 30.07 in 10.0 mi SSW 3.5 mph - N/A   Mostly Cloudy
1:53 PM 55.9 °F 46.0 °F 69% 30.06 in 10.0 mi NNW 10.4 mph - N/A   Overcast
2:53 PM 57.0 °F 46.0 °F 67% 30.05 in 10.0 mi NNW 10.4 mph - N/A   Clear
3:53 PM 57.0 °F 46.0 °F 67% 30.03 in 10.0 mi NNW 6.9 mph - N/A   Clear
4:53 PM 57.0 °F 45.0 °F 64% 30.02 in 10.0 mi NNW 8.1 mph - N/A   Clear
5:53 PM 54.0 °F 44.1 °F 69% 30.02 in 10.0 mi NNW 6.9 mph - N/A   Mostly Cloudy
6:53 PM 52.0 °F 44.1 °F 74% 30.01 in 10.0 mi North 4.6 mph - N/A   Partly Cloudy
7:53 PM 51.1 °F 43.0 °F 74% 30.01 in 10.0 mi North 4.6 mph - N/A   Clear
8:53 PM 48.0 °F 42.1 °F 80% 30.01 in 10.0 mi Calm Calm - N/A   Partly Cloudy
9:53 PM 48.9 °F 44.1 °F 83% 30.01 in 10.0 mi West 10.4 mph - N/A   Mostly Cloudy
10:53 PM 48.9 °F 41.0 °F 74% 29.99 in 10.0 mi WNW 4.6 mph - N/A   Overcast
11:53 PM 48.9 °F 42.1 °F 77% 29.99 in 10.0 mi WNW 5.8 mph - N/A   Overcast